Regional Weather Roundup
Issued by NWS

Home | Current Version | Previous Version | Graphics & Text | Print | Product List | Glossary On
Versions: 1 2 3 4 5 6 7 8 9 10 11 12 13 14 15 16 17 18 19 20 21 22 23 24 25 26 27 28 29 30 31 32 33 34 35 36 37 38 39 40 41 42 43 44 45 46 47 48 49 50
000
ASUS43 KBIS 010910
RWRND

NORTH DAKOTA REGIONAL WEATHER ROUNDUP
NATIONAL WEATHER SERVICE BISMARCK ND
400 AM CDT SAT OCT 01 2016

NOTE: "FAIR" INDICATES FEW OR NO CLOUDS BELOW 12,000 FEET WITH NO
SIGNIFICANT WEATHER AND/OR OBSTRUCTIONS TO VISIBILITY.


NDZ001>003-009>011-017-011000-
NORTHWEST NORTH DAKOTA

CITY           SKY/WX    TMP DP  RH WIND       PRES   REMARKS
WILLISTON      CLEAR     50  46  86 N5        29.98F
MINOT          CLOUDY    47  44  90 NW5       30.02F
MINOT AFB      CLOUDY    47  45  92 SE7       30.01F
$$

NDZ018>021-031>035-040>046-011000-
SOUTHWEST NORTH DAKOTA

CITY           SKY/WX    TMP DP  RH WIND       PRES   REMARKS
BISMARCK       PTCLDY    58  45  62 S7        30.04F
DICKINSON      CLEAR     47  43  86 SE6       29.98F
GARRISON         N/A     55  47  74 VRB3      30.02F
HETTINGER ARPT CLEAR     45  42  89 CALM      30.01F
$$

NDZ004>008-012>016-024-026-027-054-011000-
NORTHEAST NORTH DAKOTA

CITY           SKY/WX    TMP DP  RH WIND       PRES   REMARKS
GRAND FORKS    CLOUDY    54  48  80 SE8       30.16F
GRND FRKS AFB  CLOUDY    53  49  86 S7        30.15F
DEVILS LAKE    PTCLDY    56  49  77 SE13      30.12F
$$

NDZ022-023-025-028>030-036>039-047>053-011000-
SOUTHEAST NORTH DAKOTA

CITY           SKY/WX    TMP DP  RH WIND       PRES   REMARKS
FARGO          PTCLDY    55  48  77 SE8       30.16F
JAMESTOWN      CLOUDY    55  47  74 S8        30.11F
$$




USA.gov is the U.S. government's official web portal to all federal, state and local government web resources and services.